| time (UTC) | temp C | wind direction | speed KPH | gust KPH | rain 1hr cm | rain 24hr cm | rain mn cm | humidity % | barometer mb |
| 20260508121502 | 8 | 0.0 | 0.0 | 0.00 | 0.00 | 0.00 | 71 | 1004.9 | |
| 20260508114602 | 7 | 0.0 | 0.0 | 0.00 | 0.00 | 0.00 | 76 | 1004.9 | |
| 20260508113123 | 7 | 0.0 | 0.0 | 0.00 | 0.00 | 0.00 | 78 | 1004.8 | |
| 20260508111549 | 6 | 0.0 | 0.0 | 0.00 | 0.00 | 0.00 | 80 | 1004.6 | |
| 20260508110048 | 5 | 0.0 | 0.0 | 0.00 | 0.00 | 0.00 | 83 | 1004.4 | |
| 20260508104555 | 4 | 0.0 | 0.0 | 0.00 | 0.00 | 0.00 | 86 | 1004.4 | |
| 20260508103048 | 3 | 0.0 | 0.0 | 0.00 | 0.00 | 0.00 | 88 | 1004.3 | |
| 20260508101549 | 2 | 0.0 | 0.0 | 0.00 | 0.00 | 0.00 | 87 | 1004.3 | |
| 20260508100045 | 2 | 0.0 | 0.0 | 0.00 | 0.00 | 0.00 | 86 | 1004.2 | |
| 20260508094543 | 2 | 0.0 | 0.0 | 0.00 | 0.00 | 0.00 | 85 | 1004.1 | |
| 20260508093041 | 2 | 0.0 | 0.0 | 0.00 | 0.00 | 0.00 | 83 | 1004.1 | |
| 20260508091539 | 2 | 0.0 | 0.0 | 0.00 | 0.00 | 0.00 | 82 | 1004.1 | |
| 20260508090044 | 3 | 0.0 | 0.0 | 0.00 | 0.00 | 0.00 | 80 | 1003.9 | |
| 20260508084534 | 3 | 0.0 | 0.0 | 0.00 | 0.03 | 0.00 | 79 | 1003.8 | |
| 20260508083038 | 3 | 0.0 | 0.0 | 0.00 | 0.03 | 0.00 | 79 | 1003.7 | |
| 20260508081531 | 3 | 0.0 | 0.0 | 0.00 | 0.03 | 0.00 | 78 | 1003.6 | |
| 20260508080035 | 3 | 0.0 | 0.0 | 0.00 | 0.03 | 0.00 | 78 | 1003.6 | |
| 20260508074528 | 3 | 0.0 | 0.0 | 0.00 | 0.46 | 0.00 | 77 | 1003.5 | |
| 20260508073026 | 4 | 0.0 | 0.0 | 0.00 | 0.46 | 0.00 | 76 | 1003.5 | |
| 20260508071524 | 4 | 0.0 | 0.0 | 0.00 | 0.46 | 0.00 | 76 | 1003.6 | |
| 20260508070022 | 4 | 0.0 | 0.0 | 0.00 | 0.46 | 0.00 | 75 | 1003.6 | |
| 20260508064545 | 5 | 0.0 | 0.0 | 0.00 | 0.58 | 0.00 | 72 | 1003.5 | |
| 20260508063026 | 5 | 0.0 | 0.0 | 0.00 | 0.58 | 0.00 | 71 | 1003.6 | |
| 20260508061517 | 5 | 0.0 | 0.0 | 0.00 | 0.58 | 0.00 | 70 | 1003.5 | |
| 20260508060015 | 5 | 0.0 | 0.0 | 0.00 | 0.58 | 0.00 | 72 | 1003.7 | |
| 20260508054519 | 5 | 0.0 | 0.0 | 0.00 | 0.64 | 0.00 | 73 | 1003.8 | |
| 20260508053010 | 5 | 0.0 | 0.0 | 0.00 | 0.64 | 0.00 | 76 | 1004.1 | |
| 20260508051516 | 5 | 0.0 | 0.0 | 0.00 | 0.64 | 0.00 | 75 | 1004.2 | |
| 20260508050015 | 5 | 0.0 | 0.0 | 0.00 | 0.64 | 0.00 | 75 | 1004.3 | |
| 20260508044506 | 5 | 0.0 | 0.0 | 0.00 | 0.76 | 0.00 | 75 | 1004.4 | |
| 20260508043010 | 5 | 0.0 | 0.0 | 0.00 | 0.76 | 0.00 | 78 | 1004.7 | |
| 20260508041600 | 5 | 0.0 | 0.0 | 0.00 | 0.76 | 0.00 | 76 | 1004.5 | |
| 20260508040105 | 6 | 0.0 | 0.0 | 0.00 | 0.76 | 0.00 | 76 | 1004.5 | |
| 20260508034556 | 6 | 0.0 | 0.0 | 0.00 | 0.97 | 0.76 | 77 | 1004.5 | |
| 20260508033054 | 6 | 0.0 | 0.0 | 0.00 | 0.97 | 0.76 | 76 | 1004.4 | |
| 20260508031601 | 7 | 0.0 | 0.0 | 0.00 | 0.97 | 0.76 | 76 | 1004.4 | |
| 20260508030052 | 7 | 0.0 | 0.0 | 0.00 | 0.97 | 0.76 | 75 | 1004.3 | |
| 20260508024545 | 8 | 0.0 | 0.0 | 0.00 | 1.17 | 0.76 | 77 | 1004.4 | |
| 20260508023045 | 8 | 0.0 | 0.0 | 0.00 | 1.17 | 0.76 | 80 | 1004.4 | |
| 20260508021544 | 9 | 0.0 | 0.0 | 0.00 | 1.17 | 0.76 | 83 | 1004.5 | |
| 20260508020045 | 9 | 0.0 | 0.0 | 0.00 | 1.17 | 0.76 | 82 | 1004.5 | |
| 20260508014543 | 10 | 0.0 | 0.0 | 0.00 | 1.17 | 0.76 | 79 | 1004.5 | |
| 20260508013043 | 10 | 0.0 | 0.0 | 0.00 | 1.17 | 0.76 | 77 | 1004.3 | |
| 20260508011549 | 10 | 0.0 | 0.0 | 0.00 | 1.17 | 0.76 | 81 | 1004.3 | |
| 20260508010043 | 10 | 0.0 | 0.0 | 0.00 | 1.17 | 0.76 | 78 | 1004.1 | |
| 20260508004542 | 11 | 0.0 | 0.0 | 0.00 | 1.17 | 0.76 | 79 | 1004.0 | |
| 20260508003041 | 11 | 0.0 | 0.0 | 0.00 | 1.17 | 0.76 | 81 | 1003.6 | |
| 20260508001540 | 11 | 0.0 | 0.0 | 0.00 | 1.17 | 0.76 | 82 | 1003.3 | |
| 20260508000053 | 11 | 0.0 | 0.0 | 0.00 | 1.17 | 0.76 | 82 | 1003.2 | |
| 20260507234545 | 11 | 0.0 | 0.0 | 0.00 | 1.17 | 0.76 | 79 | 1003.2 | |
| 20260507233038 | 11 | 0.0 | 0.0 | 0.00 | 1.17 | 0.76 | 76 | 1002.9 | |
| 20260507231544 | 12 | 0.0 | 0.0 | 0.00 | 1.17 | 0.76 | 75 | 1002.7 | |
| 20260507230038 | 12 | 0.0 | 0.0 | 0.00 | 1.17 | 0.76 | 74 | 1002.4 | |
| 20260507224537 | 13 | 0.0 | 0.0 | 0.00 | 1.17 | 0.76 | 68 | 1002.2 | |
| 20260507223036 | 13 | 0.0 | 0.0 | 0.00 | 1.17 | 0.76 | 65 | 1001.9 | |
| 20260507221535 | 13 | 0.0 | 0.0 | 0.00 | 1.17 | 0.76 | 73 | 1001.7 | |
| 20260507220034 | 14 | 0.0 | 0.0 | 0.00 | 1.17 | 0.76 | 69 | 1001.5 | |
| 20260507214534 | 14 | 0.0 | 0.0 | 0.00 | 1.17 | 0.76 | 68 | 1001.6 | |
| 20260507213040 | 15 | 0.0 | 0.0 | 0.00 | 1.17 | 0.76 | 67 | 1001.5 | |
| 20260507211545 | 15 | 0.0 | 0.0 | 0.00 | 1.17 | 0.76 | 65 | 1001.4 | |
| 20260507210034 | 16 | 0.0 | 0.0 | 0.00 | 1.17 | 0.76 | 47 | 1001.3 | |
| 20260507204532 | 17 | 0.0 | 0.0 | 0.00 | 1.17 | 0.76 | 47 | 1001.2 | |
| 20260507203035 | 17 | 0.0 | 0.0 | 0.00 | 1.17 | 0.76 | 43 | 1001.1 | |
| 20260507201531 | 17 | 0.0 | 0.0 | 0.00 | 1.17 | 0.76 | 45 | 1001.0 | |
| 20260507200031 | 17 | 0.0 | 0.0 | 0.00 | 1.17 | 0.76 | 46 | 1001.0 | |
| 20260507194529 | 17 | 0.0 | 0.0 | 0.00 | 1.17 | 0.76 | 48 | 1001.0 | |
| 20260507193027 | 17 | 0.0 | 0.0 | 0.00 | 1.17 | 0.76 | 44 | 1001.2 | |
| 20260507191527 | 17 | 0.0 | 0.0 | 0.00 | 1.17 | 0.76 | 46 | 1001.3 | |
| 20260507190025 | 17 | 0.0 | 0.0 | 0.00 | 1.17 | 0.76 | 48 | 1001.5 | |
| 20260507184521 | 17 | 0.0 | 0.0 | 0.00 | 1.17 | 0.76 | 46 | 1001.6 | |
| 20260507183020 | 16 | 0.0 | 0.0 | 0.00 | 1.17 | 0.76 | 49 | 1001.7 | |
| 20260507181519 | 16 | 0.0 | 0.0 | 0.00 | 1.17 | 0.76 | 52 | 1002.0 | |
| 20260507180018 | 17 | 0.0 | 0.0 | 0.00 | 1.17 | 0.76 | 48 | 1001.9 | |
| 20260507174537 | 17 | 0.0 | 0.0 | 0.00 | 1.17 | 0.76 | 51 | 1001.8 | |
| 20260507173017 | 16 | 0.0 | 0.0 | 0.00 | 1.17 | 0.76 | 54 | 1001.9 | |
| 20260507171511 | 16 | 0.0 | 0.0 | 0.00 | 1.17 | 0.76 | 56 | 1002.2 | |
| 20260507170011 | 16 | 0.0 | 0.0 | 0.00 | 1.17 | 0.76 | 61 | 1002.2 | |
| 20260507164509 | 15 | 0.0 | 0.0 | 0.00 | 1.17 | 0.76 | 58 | 1002.3 | |
| 20260507163007 | 15 | 0.0 | 0.0 | 0.00 | 1.17 | 0.76 | 63 | 1002.4 | |
| 20260507161504 | 15 | 0.0 | 0.0 | 0.00 | 1.17 | 0.76 | 67 | 1002.7 | |
| 20260507160007 | 15 | 0.0 | 0.0 | 0.00 | 1.17 | 0.76 | 65 | 1003.1 | |
| 20260507154501 | 14 | 0.0 | 0.0 | 0.00 | 1.17 | 0.76 | 68 | 1003.2 | |
| 20260507153058 | 14 | 0.0 | 0.0 | 0.00 | 1.17 | 0.76 | 70 | 1003.1 | |
| 20260507151600 | 13 | 0.0 | 0.0 | 0.00 | 1.17 | 0.76 | 71 | 1003.3 | |
| 20260507150053 | 13 | 0.0 | 0.0 | 0.00 | 1.17 | 0.76 | 74 | 1003.4 | |
| 20260507144551 | 12 | 0.0 | 0.0 | 0.00 | 1.17 | 0.76 | 82 | 1003.7 | |
| 20260507143052 | 11 | 0.0 | 0.0 | 0.00 | 1.17 | 0.76 | 82 | 1004.0 | |
| 20260507141548 | 11 | 0.0 | 0.0 | 0.00 | 1.17 | 0.76 | 86 | 1003.9 | |
| 20260507140052 | 11 | 0.0 | 0.0 | 0.00 | 1.17 | 0.76 | 87 | 1004.4 | |
| 20260507134543 | 10 | 0.0 | 0.0 | 0.00 | 1.17 | 0.76 | 91 | 1004.1 | |
| 20260507133043 | 8 | 0.0 | 0.0 | 0.00 | 1.17 | 0.76 | 92 | 1004.2 | |
| 20260507131609 | 8 | 0.0 | 0.0 | 0.00 | 1.17 | 0.76 | 93 | 1004.3 | |
| 20260507130041 | 8 | 0.0 | 0.0 | 0.00 | 1.17 | 0.76 | 94 | 1004.1 | |
| 20260507124550 | 8 | 0.0 | 0.0 | 0.00 | 1.17 | 0.76 | 94 | 1003.8 | |
| 20260507123045 | 8 | 0.0 | 0.0 | 0.00 | 1.17 | 0.76 | 94 | 1004.3 |